Regional Weather Roundup
Issued by NWS

Home | Current Version | Previous Version | Graphics & Text | Print | Product List | Glossary On
Versions: 1 2 3 4 5 6 7 8 9 10 11 12 13 14 15 16 17 18 19 20 21 22 23 24 25 26 27 28 29 30 31 32 33 34 35 36 37 38 39 40 41 42 43 44 45 46 47 48 49 50
000
ASUS43 KDTX 231410
RWRMI
MICHIGAN HOURLY REGIONAL WEATHER ROUNDUP
NATIONAL WEATHER SERVICE DETROIT/PONTIAC MI
1000 AM EDT MON APR 23 2018

NOTE: "FAIR" INDICATES FEW OR NO CLOUDS BELOW 12,000 FEET WITH NO
SIGNIFICANT WEATHER AND/OR OBSTRUCTION TO VISIBILITY.

MIZ047>049-052>055-059>063-066>070-074>076-081>083-231500-
SOUTHEAST LOWER MICHIGAN

CITY           SKY/WX    TMP DP  RH WIND       PRES   REMARKS
ADRIAN         FAIR      54  35  48 E10       30.23F
ALMA           FAIR      49  32  51 NE9       30.29F
ANN ARBOR      FAIR      54  35  48 E9        30.24F
BAD AXE        FAIR      54  25  32 SE6       30.32F
CARO           FAIR      55  28  35 E7        30.28F
DETROIT CITY   FAIR      52  33  48 E10       30.28F
DETROIT        PTSUNNY   57  35  43 E9        30.26F
FLINT          FAIR      55  32  41 E8        30.26F
GROSSE ILE     FAIR      55  38  52 E6        30.25F
HILLSDALE      FAIR      54  32  43 E9        30.21F
HOWELL         FAIR      56  32  39 E9        30.25F

CITY           SKY/WX    TMP DP  RH WIND       PRES   REMARKS
JACKSON        FAIR      55  33  43 NE10      30.23F
LAMBERTVILLE   FAIR      55  38  54 E8        30.23S
LANSING        FAIR      52  31  44 NE6       30.26F
LAPEER         FAIR      54  30  40 E7        30.28F
MASON          FAIR      56  28  34 E9        30.25F
MONROE         FAIR      55  35  45 E7        30.24F
MT. CLEMENS    PTSUNNY   52  35  51 E6        30.27S
PONTIAC        PTSUNNY   54  31  41 E8        30.26F
PORT HOPE        N/A     42  33  70 E10       30.32F
PORT HURON     FAIR      55  30  38 SE8       30.29F
TRI CITIES     FAIR      51  34  52 NE9       30.30F
MIDLAND        FAIR      50  31  47 NE5       30.30F
TROY           FAIR      55  29  38 E9        30.29F
SAGINAW HB     FAIR      50  30  46 NE9       30.29F
$$
MIZ043>046-050>051-056>058-064>065-071>073-077>080-231500-
SOUTHWEST LOWER MICHIGAN

CITY           SKY/WX    TMP DP  RH WIND       PRES   REMARKS
BATTLE CREEK   FAIR      53  29  39 NE9       30.23F
BENTON HARBOR  FAIR      54  27  35 E10       30.20F
BIG RAPIDS     FAIR      53  19  26 E7        30.29S
COLDWATER      FAIR      54  31  41 E7        30.20F
FREMONT        FAIR      55  11  17 E9        30.26F
HOLLAND        FAIR      53  29  39 E8        30.24F
GRAND RAPIDS   PTSUNNY   52  30  43 NE12      30.24F
IONIA          FAIR      51  29  42 NE10      30.25F
KALAMAZOO      FAIR      55  29  36 NE6       30.23F
LUDINGTON      FAIR      53  30  42 CALM      30.28F
MARSHALL       FAIR      55  30  39 E7        30.22F
MOUNT PLEASANT FAIR      51  32  48 N3        30.29F
MUSKEGON       PTSUNNY   56  27  32 NE10      30.25F
SOUTH HAVEN    FAIR      54  25  32 E7        30.21F
$$
MIZ016>042-231500-
NORTHERN LOWER MICHIGAN

CITY           SKY/WX    TMP DP  RH WIND       PRES   REMARKS
ALPENA         FAIR      49  27  42 S3        30.35F
BEAVER ISLAND  FAIR      54  20  27 S7        30.31F
BELLAIRE       FAIR      51  23  33 CALM      30.32F
CADILLAC       FAIR      53  23  31 SE3       30.29F
CHARLEVOIX     FAIR      46  25  43 N3        30.34F
FRANKFORT      FAIR      56  27  32 SE5       30.30F
GAYLORD        FAIR      49  20  31 CALM      30.32F
GRAYLING       FAIR      46  25  42 CALM      30.32F
HARBOR SPRINGS FAIR      51  25  36 CALM      30.32F
HOUGHTON LAKE  FAIR      55  23  28 E7        30.31F
MANISTEE       FAIR      52  27  38 E6        30.29F
OSCODA         FAIR      50  24  36 E6        30.34F
PELLSTON       FAIR      49  25  39 SE6       30.32F
ROGERS CITY    FAIR      48  25  40 E3        30.35F
TRAVERSE CITY  FAIR      50  30  46 N5        30.31F
$$
MIZ007>008-015-231500-
EASTERN UPPER MICHIGAN

CITY           SKY/WX    TMP DP  RH WIND       PRES   REMARKS
KINROSS        FAIR      48  26  42 SE10      30.32F
MACKINAC ISLAN FAIR      49  21  32 CALM      30.32F
NEWBERRY       FAIR      46  24  41 S13       30.30S
S. S. MARIE    FAIR      46  23  40 SE5       30.32F
MUNISING         N/A     53  18  25 SW9       30.27F
$$
MIZ004>006-011>014-085-231500-
CENTRAL UPPER MICHIGAN

CITY           SKY/WX    TMP DP  RH WIND       PRES   REMARKS
MANISTIQUE     FAIR      45  29  53 S6G17     30.31S
ESCANABA       FAIR      47  26  44 E3        30.31F
MENOMINEE      FAIR      47  22  37 SE3       30.31F
SAWYER-GWINN   SUNNY     43  25  49 S3        30.29S
$$
MIZ001>003-009>011-084-231500-
WESTERN UPPER MICHIGAN

CITY           SKY/WX    TMP DP  RH WIND       PRES   REMARKS
IRON MOUNTAIN  FAIR      48  24  39 CALM      30.28F
HOUGHTON       FAIR      50  23  34 MISG      30.22F
COPPER HARBOR    N/A     49  26  41 VRB5      30.21F
IRONWOOD       FAIR      51  27  39 SW10      30.25F
$$

ABBREVIATIONS USED IN REMARKS
   TC - TEMPERATURE IN CELSIUS
  WCI - WIND CHILL INDEX
   HX - HEAT INDEX
  VSB - VISIBILITY





USA.gov is the U.S. government's official web portal to all federal, state and local government web resources and services.